Regional Weather Roundup
Issued by NWS

Home | Current Version | Previous Version | Graphics & Text | Print | Product List | Glossary Off
Versions: 1 2 3 4 5 6 7 8 9 10 11 12 13 14 15 16 17 18 19 20 21 22 23 24 25 26 27 28 29 30 31 32 33 34 35 36 37 38 39 40 41 42 43 44 45 46 47 48 49 50

000
ASUS43 KLSX 070707
RWRMO

WEATHER SUMMARY FOR MISSOURI
NATIONAL WEATHER SERVICE SPRINGFIELD MO
100 AM CST SUN FEB 07 2016

NOTE: "FAIR" INDICATES FEW OR NO CLOUDS BELOW 12,000 FEET WITH NO
       SIGNIFICANT WEATHER AND/OR OBSTRUCTIONS TO VISIBILITY.
       CURRENT SKY AND/OR WEATHER CONDITIONS ARE NOT AVAILABLE FOR
       CHILLICOTHE AND FARMINGTON.

MOZ001>031-035>038-043-044-053-054-070800-
...NORTHERN AND WESTERN MISSOURI...

CITY           SKY/WX    TMP DP  RH WIND       PRES   REMARKS
KANSAS CTY INT CLEAR     39  27  62 SW17      30.03F WCI  30
KANSAS C DTWN  CLEAR     42  27  55 SW13      30.05F
LEE`S SUMMIT   PTCLDY    39  27  62 SW16      30.07F
ST JOSEPH      CLEAR     38  27  64 S12       30.01F
CHILLICOTHE      N/A     37  29  72 S8        30.04F
KIRKSVILLE     PTCLDY    38  28  67 SW12      30.04F

$$
MOZ066>068-077>081-088>096-101>105-070800-
...SOUTHWEST MISSOURI...

CITY           SKY/WX    TMP DP  RH WIND       PRES   REMARKS
SPRINGFIELD    PTCLDY    35  27  72 S6        30.16F
JOPLIN         CLOUDY    38  27  64 S9        30.17F

$$
MOZ032>034-039>042-045>050-055>058-069>072-070800-
...CENTRAL MISSOURI...

CITY           SKY/WX    TMP DP  RH WIND       PRES   REMARKS
COLUMBIA       PTCLDY    37  29  72 SW12      30.12S WCI  29
JEFFERSON CITY CLOUDY    41  30  65 S7        30.15S
ROLLA          CLOUDY    36  25  64 S9        30.14F WCI  29
SEDALIA        CLOUDY    40  28  62 SW12      30.12F
WHITEMAN AFB   MOCLDY    39  28  66 SW14      30.10F
WARRENSBURG    MOCLDY    39  28  65 S12G17    30.09F
OSAGE BEACH    PTCLDY    37  27  65 S6        30.15S

$$
MOZ051-052-059>065-070800-
...EAST CENTRAL MISSOURI...

CITY           SKY/WX    TMP DP  RH WIND       PRES   REMARKS
ST LOUIS INTL  MOCLDY    43  23  45 SW10      30.16S
SPIRIT OF STL  PTCLDY    31  27  85 CALM      30.15S
ST CHARLES     PTCLDY    36  28  73 SW10      30.14F WCI  28

$$
MOZ072>076-082>087-097>100-106>115-070800-
...SOUTH CENTRAL AND SOUTHEAST MISSOURI...

CITY           SKY/WX    TMP DP  RH WIND       PRES   REMARKS
CAPE GIRARDEAU CLEAR     31  22  69 W3        30.23F
FARMINGTON     CLEAR     38  19  46 S8        30.19F
POPLAR BLUFF   CLEAR     34  23  64 SW5       30.23F WCI  30
WEST PLAINS    CLEAR     38  16  40 SW7       30.20F

$$


USA.gov is the U.S. government's official web portal to all federal, state and local government web resources and services.